{"data":{"norad_id":68364,"epoch":"2026-09-20T00:53:06.552096Z","epoch_age_seconds":112303,"freshness":"FRESH","line1":"1 68364U 26061E   26263.03688139  .00002003  00000+0  95926-4 0  9998","line2":"2 68364  82.2936 278.3398 0001935  67.2751 292.8687 15.18414334 27785","mean_motion":15.18414334,"eccentricity":0.0001935,"inclination_deg":82.2936,"raan_deg":278.3398,"arg_perigee_deg":67.2751,"mean_anomaly_deg":292.8687,"bstar":9.5926e-5,"rev_number":2778,"period_min":94.835774910434,"perigee_km":509.29938574718,"apogee_km":511.96533949051,"semimajor_km":6888.7693626188,"source":"CELESTRAK","updated_at":"2026-09-20T09:00:24.162265Z"}}